St.-Anicet, Quebec

3:21 PM EST on December 14, 2017 (GMT -0500)
St.-Anicet

Weather History for CWBZ - November, 2012

Change the Weather History Date:

Friday, November 23, 2012

  Actual Average Record
Temperature  
Mean Temperature 46 °F -  
Max Temperature 59 °F - - ()
Min Temperature 33 °F - - ()
Degree Days  
Heating Degree Days 19    
Moisture  
Dew Point 34 °F    
Average Humidity 56    
Maximum Humidity 88    
Minimum Humidity 30    
Precipitation  
Precipitation 0.04 in - - ()
Sea Level Pressure  
Sea Level Pressure 29.71 in    
Wind  
Wind Speed 6 mph ()    
Max Wind Speed 20 mph    
Max Gust Speed -    
T = Trace of Precipitation, MM = Missing Value Source: Averaged Metar Reports

Daily Weather History Graph

Daily Weather History Graph

Search for Another Location

Airport or City:

Trip Planner

Search our weather history database for the weather conditions in past years. The results will help you decide how hot, cold, wet, or windy it might be!

Date:

Astronomy

Nov. 23, 2012 Rise Set
Actual Time 7:06 AM EST 4:20 PM EST
Civil Twilight 6:33 AM EST 4:53 PM EST
Nautical Twilight 5:57 AM EST 5:29 PM EST
Astronomical Twilight 5:22 AM EST 6:04 PM EST
Moon 1:43 PM EST (11/23) 2:11 AM EST (11/23)
Length of Visible Light 10h 19m
Length of Day
9h 14m
Waxing Gibbous, 79% of the Moon is Illuminated
Nov 23
Waxing Gibbous
Nov 28
Full
Dec 6
Last Quarter
Dec 13
New
Dec 20
First Quarter

Hourly Weather History & Observations

Time (EST) Temp. Windchill Dew Point Humidity Pressure Visibility Wind Dir Wind Speed Gust Speed Precip Events Conditions
12:00 AM 44.2 °F 41.8 °F 27.0 °F 51% 29.96 in - South 4.6 mph - N/A   Unknown
1:00 AM 45 °F - 26 °F 35% 29.94 in - SSW 3.5 mph - -  
1:00 AM 44.8 °F 43.3 °F 26.2 °F 48% 29.94 in - SSW 3.5 mph - N/A   Unknown
2:00 AM 37.6 °F - 25.7 °F 62% 29.93 in - SSW 2.3 mph - N/A   Unknown
3:00 AM 46.0 °F 44.8 °F 25.7 °F 45% 29.91 in - SSW 3.5 mph - N/A   Unknown
4:00 AM 45.7 °F 42.0 °F 27.7 °F 49% 29.87 in - South 6.9 mph - N/A   Unknown
5:00 AM 46.4 °F 43.5 °F 27.1 °F 47% 29.84 in - South 5.8 mph - N/A   Unknown
6:00 AM 41.5 °F - 27.3 °F 57% 29.82 in - SSE 2.3 mph - N/A   Unknown
7:00 AM 44 °F - 28 °F 41% 29.81 in - South 3.5 mph - -  
7:00 AM 43.5 °F 41.9 °F 28.0 °F 54% 29.81 in - South 3.5 mph - N/A   Unknown
8:00 AM 46.9 °F - 28.8 °F 49% 29.78 in - South 4.6 mph - N/A   Unknown
9:00 AM 51.4 °F - 29.3 °F 43% 29.73 in - South 8.1 mph - N/A   Unknown
10:00 AM 55.4 °F - 31.5 °F 40% 29.71 in - South 4.6 mph - N/A   Unknown
11:00 AM 57.9 °F - 33.8 °F 40% 29.66 in - South 8.1 mph - N/A   Unknown
12:00 PM 58.1 °F - 35.2 °F 42% 29.61 in - South 5.8 mph - N/A   Unknown
1:00 PM 59 °F - 36 °F 30% 29.58 in - SW 6.9 mph - -  
1:00 PM 59.4 °F - 35.8 °F 41% 29.58 in - SW 6.9 mph - N/A   Unknown
2:00 PM 55.2 °F - 41.7 °F 60% 29.58 in - WSW 19.6 mph - N/A   Unknown
3:00 PM 50.9 °F - 43.2 °F 75% 29.60 in - SW 13.8 mph - N/A   Unknown
4:00 PM 48.9 °F - 44.6 °F 85% 29.60 in - SW 8.1 mph - N/A   Unknown
5:00 PM 48.9 °F - 45.5 °F 88% 29.60 in - SSW 8.1 mph - N/A   Unknown
6:00 PM 49.5 °F - 44.6 °F 83% 29.58 in - SSW 6.9 mph - N/A   Unknown
7:00 PM 50 °F - 43 °F 69% 29.57 in - SW 12.7 mph - -  
7:00 PM 50.2 °F - 42.8 °F 76% 29.57 in - SW 12.7 mph - N/A   Unknown
8:00 PM 49.6 °F - 41.2 °F 73% 29.60 in - SW 15.0 mph - 0.04 in   Unknown
9:00 PM 47.8 °F - 36.7 °F 65% 29.58 in - SW 13.8 mph - N/A   Unknown
10:00 PM 46.2 °F 40.5 °F 34.5 °F 64% 29.57 in - WSW 12.7 mph - N/A   Unknown
11:00 PM 45.1 °F 41.4 °F 35.6 °F 69% 29.56 in - SW 6.9 mph - N/A   Unknown